Find Starlink 35915

NORAD ID: 66521 Int'l Des: 2025-265 Owner: SPXS Country: US Constellation: starlink operational
LEOCIRCULAR

当前视图

正在加载3D地球...

About Starlink 35915

Starlink 35915 (NORAD 66521) is a starlink constellation satellite (v2 mini) launched Nov 19, 2025 by SPXS of US. It operates in LEO, CIRCULAR orbit with a mass of 575.00 kg.

即将过境

Passes for default location (London). Set your location on the main map for personalized predictions.

高度历史

Loading altitude history...

两行轨道根数

1 66521U 25265F 26224.11903594 .00012369 00000-0 45814-3 0 9994
2 66521 43.0022 120.2157 0001573 280.5199 79.5476 15.27586616 40886
Epoch: Aug 12, 2026 • Age: 21 hours

当前状态

高度 486.5 km
远地点 / 近地点 N/A
速度 7.63 km/s
星下点 40.81°N, 132.66°W
发射日期 Nov 19, 2025
运行时间 0.7 years
类型 internet

技术详情

分类 Payload
质量 575.00 kg
干质量 530.00 kg
总质量 575.00 kg
长度 0.30 m
直径 4.10 m
跨度 29.00 m
形状 Box + pan
制造商 SPXS
平台类型 Starlink V2MO
阶段状态 In Orbit
所有者/国家 SPXS/US

Most Searched